• In Deutschland
  • Länderverzeichnis
  • Für 7 Tage
  • Wassertemperatur
  • Satellitenkarten
  • Wetterkarte
  • Widgets
  • user-avatar
    Anmelden

    Stündliche Wetter Bensheim

    Heute, 23 Juli, Montag

    Zeit Temperatur Niederschläge Wind Luftdruck Luftfeuchtigkeit
    00:00 +19°C° 0 mm 0 m/S 753 mmHg 80%
    01:00 +18°C° 0 mm 0 m/S 753 mmHg 82%
    02:00 +18°C° 0,1 mm 0 m/S 753 mmHg 82%
    03:00 +18°C° 0,1 mm 0 m/S 753 mmHg 83%
    04:00 +18°C° 0,1 mm 0 m/S 753 mmHg 84%
    05:00 +18°C° 0 mm 0 m/S 753 mmHg 81%
    06:00 +19°C° 0 mm 0 m/S 753 mmHg 79%
    07:00 +20°C° 0 mm 0 m/S 753 mmHg 77%
    08:00 +24°C° 0,2 mm 1 m/S 754 mmHg 71%
    09:00 +25°C° 0,2 mm 1 m/S 754 mmHg 64%
    10:00 +27°C° 0,2 mm 1 m/S 754 mmHg 58%
    11:00 +28°C° 0,1 mm 1 m/S 754 mmHg 53%
    12:00 +29°C° 0,1 mm 1 m/S 753 mmHg 49%
    13:00 +30°C° 0,1 mm 2 m/S 753 mmHg 44%
    14:00 +30°C° 0 mm 2 m/S 753 mmHg 43%
    15:00 +31°C° 0 mm 2 m/S 753 mmHg 42%
    16:00 +31°C° 0 mm 2 m/S 753 mmHg 41%
    17:00 +30°C° 0 mm 2 m/S 753 mmHg 45%
    18:00 +29°C° 0 mm 2 m/S 753 mmHg 49%
    19:00 +28°C° 0 mm 1 m/S 753 mmHg 53%
    20:00 +27°C° 0 mm 1 m/S 753 mmHg 57%
    21:00 +25°C° 0 mm 1 m/S 753 mmHg 60%
    22:00 +24°C° 0 mm 1 m/S 753 mmHg 64%
    23:00 +24°C° 0 mm 1 m/S 753 mmHg 67%

    Morgen, 24 Juli, Dienstag

    Zeit Temperatur Niederschläge Wind Luftdruck Luftfeuchtigkeit
    00:00 +23°C° 0 mm 1 m/S 753 mmHg 69%
    01:00 +22°C° 0 mm 1 m/S 753 mmHg 72%
    02:00 +22°C° 0 mm 1 m/S 753 mmHg 74%
    03:00 +21°C° 0 mm 1 m/S 753 mmHg 76%
    04:00 +21°C° 0 mm 1 m/S 753 mmHg 79%
    05:00 +22°C° 0 mm 1 m/S 753 mmHg 77%
    06:00 +23°C° 0 mm 1 m/S 753 mmHg 74%
    07:00 +24°C° 0 mm 1 m/S 753 mmHg 72%
    08:00 +25°C° 0 mm 1 m/S 753 mmHg 66%
    09:00 +27°C° 0 mm 2 m/S 753 mmHg 60%
    10:00 +29°C° 0 mm 2 m/S 753 mmHg 54%
    11:00 +30°C° 0 mm 2 m/S 752 mmHg 50%
    12:00 +31°C° 0 mm 2 m/S 752 mmHg 47%
    13:00 +31°C° 0 mm 2 m/S 751 mmHg 43%
    14:00 +32°C° 0 mm 2 m/S 751 mmHg 42%
    15:00 +32°C° 0 mm 2 m/S 751 mmHg 41%
    16:00 +32°C° 0 mm 2 m/S 750 mmHg 41%
    17:00 +31°C° 0 mm 2 m/S 750 mmHg 45%
    18:00 +30°C° 0 mm 2 m/S 750 mmHg 49%
    19:00 +29°C° 0 mm 2 m/S 750 mmHg 53%
    20:00 +28°C° 0 mm 1 m/S 750 mmHg 56%
    21:00 +27°C° 0 mm 1 m/S 751 mmHg 58%
    22:00 +25°C° 0 mm 1 m/S 751 mmHg 61%
    23:00 +24°C° 0 mm 1 m/S 751 mmHg 64%

    übermorgen, 25 Juli, Mittwoch

    Zeit Temperatur Niederschläge Wind Luftdruck Luftfeuchtigkeit
    00:00 +24°C° 0 mm 1 m/S 751 mmHg 67%
    01:00 +23°C° 0 mm 1 m/S 751 mmHg 70%
    02:00 +23°C° 0 mm 1 m/S 751 mmHg 72%
    03:00 +22°C° 0 mm 1 m/S 751 mmHg 74%
    04:00 +22°C° 0 mm 1 m/S 751 mmHg 76%
    05:00 +23°C° 0 mm 1 m/S 752 mmHg 74%
    06:00 +23°C° 0 mm 1 m/S 752 mmHg 72%
    07:00 +24°C° 0 mm 1 m/S 752 mmHg 69%
    08:00 +26°C° 0 mm 1 m/S 752 mmHg 63%
    09:00 +28°C° 0 mm 1 m/S 752 mmHg 57%
    10:00 +30°C° 0 mm 2 m/S 752 mmHg 50%
    11:00 +31°C° 0 mm 2 m/S 752 mmHg 47%
    12:00 +32°C° 0 mm 2 m/S 751 mmHg 43%
    13:00 +34°C° 0 mm 2 m/S 751 mmHg 39%
    14:00 +34°C° 0 mm 2 m/S 751 mmHg 39%
    15:00 +34°C° 0 mm 2 m/S 751 mmHg 38%
    16:00 +34°C° 0 mm 2 m/S 751 mmHg 38%
    17:00 +32°C° 0 mm 2 m/S 751 mmHg 42%
    18:00 +31°C° 0 mm 2 m/S 751 mmHg 47%
    19:00 +30°C° 0 mm 2 m/S 751 mmHg 52%
    20:00 +29°C° 0 mm 2 m/S 751 mmHg 55%
    21:00 +28°C° 0 mm 1 m/S 752 mmHg 59%
    22:00 +26°C° 0 mm 1 m/S 752 mmHg 62%
    23:00 +26°C° 0 mm 1 m/S 752 mmHg 65%

    26 Juli, Donnerstag

    Zeit Temperatur Niederschläge Wind Luftdruck Luftfeuchtigkeit
    00:00 +25°C° 0 mm 1 m/S 752 mmHg 68%
    01:00 +24°C° 0 mm 1 m/S 752 mmHg 71%
    02:00 +24°C° 0 mm 1 m/S 752 mmHg 73%
    03:00 +23°C° 0 mm 1 m/S 752 mmHg 75%
    04:00 +23°C° 0 mm 1 m/S 752 mmHg 77%
    05:00 +24°C° 0 mm 1 m/S 752 mmHg 75%
    06:00 +24°C° 0 mm 1 m/S 752 mmHg 73%
    07:00 +25°C° 0 mm 1 m/S 753 mmHg 71%
    08:00 +27°C° 0 mm 2 m/S 753 mmHg 65%
    09:00 +29°C° 0 mm 2 m/S 753 mmHg 58%
    10:00 +30°C° 0 mm 2 m/S 753 mmHg 51%
    11:00 +31°C° 0 mm 2 m/S 752 mmHg 47%
    12:00 +32°C° 0 mm 2 m/S 752 mmHg 43%
    13:00 +34°C° 0 mm 3 m/S 752 mmHg 39%
    14:00 +35°C° 0 mm 3 m/S 752 mmHg 39%
    15:00 +35°C° 0 mm 3 m/S 752 mmHg 38%
    16:00 +35°C° 0 mm 3 m/S 751 mmHg 38%
    17:00 +34°C° 0 mm 3 m/S 751 mmHg 42%
    18:00 +32°C° 0 mm 2 m/S 751 mmHg 47%
    19:00 +31°C° 0 mm 2 m/S 751 mmHg 51%
    20:00 +29°C° 0 mm 2 m/S 752 mmHg 54%
    21:00 +28°C° 0 mm 2 m/S 752 mmHg 57%
    22:00 +26°C° 0 mm 2 m/S 752 mmHg 60%
    23:00 +26°C° 0 mm 2 m/S 752 mmHg 61%

    27 Juli, Freitag

    Zeit Temperatur Niederschläge Wind Luftdruck Luftfeuchtigkeit
    00:00 +25°C° 0 mm 1 m/S 752 mmHg 63%
    01:00 +24°C° 0 mm 1 m/S 752 mmHg 65%
    02:00 +23°C° 0 mm 1 m/S 752 mmHg 66%
    03:00 +23°C° 0 mm 1 m/S 752 mmHg 68%
    04:00 +22°C° 0 mm 1 m/S 752 mmHg 70%
    05:00 +23°C° 0 mm 1 m/S 752 mmHg 68%
    06:00 +24°C° 0 mm 1 m/S 752 mmHg 66%
    07:00 +25°C° 0 mm 1 m/S 752 mmHg 65%
    08:00 +27°C° 0 mm 1 m/S 752 mmHg 59%
    09:00 +29°C° 0 mm 1 m/S 752 mmHg 53%
    10:00 +30°C° 0 mm 1 m/S 752 mmHg 47%
    11:00 +32°C° 0 mm 1 m/S 751 mmHg 43%
    12:00 +33°C° 0 mm 1 m/S 751 mmHg 40%
    13:00 +34°C° 0 mm 1 m/S 751 mmHg 36%
    14:00 +35°C° 0 mm 1 m/S 750 mmHg 35%
    15:00 +35°C° 0 mm 1 m/S 750 mmHg 34%
    16:00 +33°C° 0 mm 0 m/S 750 mmHg 33%
    17:00 +32°C° 0 mm 0 m/S 750 mmHg 37%
    18:00 +33°C° 0 mm 1 m/S 750 mmHg 41%
    19:00 +31°C° 0 mm 1 m/S 750 mmHg 45%
    20:00 +30°C° 0 mm 1 m/S 750 mmHg 47%
    21:00 +29°C° 0 mm 1 m/S 750 mmHg 50%
    22:00 +27°C° 0 mm 1 m/S 751 mmHg 52%
    23:00 +26°C° 0 mm 1 m/S 751 mmHg 54%

    28 Juli, Samstag

    Zeit Temperatur Niederschläge Wind Luftdruck Luftfeuchtigkeit
    00:00 +26°C° 0 mm 1 m/S 751 mmHg 57%
    01:00 +23°C° 0 mm 0 m/S 751 mmHg 60%
    02:00 +22°C° 0 mm 0 m/S 751 mmHg 61%
    03:00 +24°C° 0 mm 1 m/S 751 mmHg 63%
    04:00 +24°C° 0 mm 1 m/S 751 mmHg 64%
    05:00 +24°C° 0 mm 1 m/S 751 mmHg 63%
    06:00 +25°C° 0 mm 1 m/S 751 mmHg 62%
    07:00 +26°C° 0 mm 1 m/S 751 mmHg 60%
    08:00 +28°C° 0 mm 1 m/S 751 mmHg 55%
    09:00 +30°C° 0 mm 1 m/S 751 mmHg 50%
    10:00 +32°C° 0 mm 1 m/S 751 mmHg 45%
    11:00 +32°C° 0,1 mm 1 m/S 751 mmHg 42%
    12:00 +34°C° 0,1 mm 2 m/S 751 mmHg 40%
    13:00 +35°C° 0,1 mm 2 m/S 751 mmHg 37%
    14:00 +35°C° 0 mm 2 m/S 751 mmHg 40%
    15:00 +34°C° 0 mm 2 m/S 751 mmHg 42%
    16:00 +32°C° 0 mm 2 m/S 751 mmHg 45%
    17:00 +32°C° 0 mm 2 m/S 751 mmHg 48%
    18:00 +31°C° 0 mm 2 m/S 751 mmHg 52%
    19:00 +30°C° 0 mm 2 m/S 752 mmHg 55%
    20:00 +29°C° 0,2 mm 2 m/S 752 mmHg 60%
    21:00 +27°C° 0,2 mm 2 m/S 752 mmHg 65%
    22:00 +26°C° 0,2 mm 2 m/S 753 mmHg 69%
    23:00 +25°C° 0,4 mm 1 m/S 753 mmHg 71%
    Mehr zeigen